TimeCST,TemperatureF,Dew PointF,Humidity,Sea Level PressureIn,VisibilityMPH,Wind Direction,Wind SpeedMPH,Gust SpeedMPH,PrecipitationIn,Events,Conditions,WindDirDegrees,DateUTC
12:54 AM,52.0,45.0,77,30.06,10.0,Variable,5.8,-,N/A,,Scattered Clouds,0,2013-02-23 06:54:00
1:54 AM,50.0,45.0,83,30.04,10.0,Variable,3.5,-,N/A,,Clear,0,2013-02-23 07:54:00
2:54 AM,50.0,44.1,80,30.04,10.0,Calm,Calm,-,N/A,,Clear,0,2013-02-23 08:54:00
3:54 AM,48.0,43.0,83,30.72,10.0,Variable,4.6,-,N/A,,Clear,0,2013-02-23 09:54:00
4:54 AM,46.9,43.0,86,29.99,10.0,Variable,3.5,-,N/A,,Clear,0,2013-02-23 10:54:00
5:54 AM,46.0,42.1,86,30.03,10.0,Variable,3.5,-,N/A,,Clear,0,2013-02-23 11:54:00
6:54 AM,45.0,43.0,93,30.06,10.0,Calm,Calm,-,N/A,,Clear,0,2013-02-23 12:54:00
7:54 AM,46.9,43.0,86,30.08,10.0,NNE,5.8,-,N/A,,Clear,20,2013-02-23 13:54:00
8:54 AM,48.9,42.1,77,30.08,10.0,Variable,3.5,-,N/A,,Clear,0,2013-02-23 14:54:00
9:54 AM,53.1,42.1,66,30.77,10.0,Variable,5.8,-,N/A,,Clear,0,2013-02-23 15:54:00
10:54 AM,57.0,42.1,57,30.03,10.0,Variable,5.8,-,N/A,,Clear,0,2013-02-23 16:54:00
11:54 AM,57.9,43.0,58,30.04,10.0,Variable,4.6,-,N/A,,Clear,0,2013-02-23 17:54:00
12:54 PM,62.1,44.1,52,29.99,10.0,Variable,4.6,-,N/A,,Clear,0,2013-02-23 18:54:00
1:54 PM,64.0,45.0,50,29.98,10.0,NE,4.6,-,N/A,,Clear,50,2013-02-23 19:54:00
2:54 PM,64.9,46.0,50,29.98,10.0,Variable,3.5,-,N/A,,Clear,0,2013-02-23 20:54:00
3:54 PM,64.9,45.0,48,29.97,10.0,Calm,Calm,-,N/A,,Clear,0,2013-02-23 21:54:00
4:54 PM,63.0,45.0,52,29.97,10.0,Variable,4.6,-,N/A,,Clear,0,2013-02-23 22:54:00
5:54 PM,57.9,48.0,70,29.98,10.0,Calm,Calm,-,N/A,,Clear,0,2013-02-23 23:54:00
6:54 PM,52.0,46.9,83,30.00,10.0,Calm,Calm,-,N/A,,Clear,0,2013-02-24 00:54:00
7:54 PM,51.1,45.0,80,30.02,10.0,Calm,Calm,-,N/A,,Clear,0,2013-02-24 01:54:00
8:54 PM,48.9,44.1,83,30.02,10.0,Calm,Calm,-,N/A,,Clear,0,2013-02-24 02:54:00
9:54 PM,50.0,44.1,80,30.04,10.0,Calm,Calm,-,N/A,,Clear,0,2013-02-24 03:54:00
10:54 PM,48.0,42.1,80,30.76,10.0,Calm,Calm,-,N/A,,Clear,0,2013-02-24 04:54:00
11:54 PM,45.0,41.0,86,30.04,10.0,Calm,Calm,-,N/A,,Clear,0,2013-02-24 05:54:00